Location: Miles
(41.4492°N, 81.6087°W)
Time: 15:06:59
(UTC+00:00)

A-11 Canister half - Pass Details

Date: 15 September 2024
Orbit: 1515 x 1685 km, 47.2° (Epoch: 14 October)

Event Time Altitude Azimuth Distance (km) Brightness Sun altitude
Rises 02:46:27 0° 274° (W) 4,692 12.2 -33.4°
Reaches altitude 10° 02:49:35 10° 278° (W) 3,696 11.6 -33.8°
Maximum altitude 02:58:46 61° 358° (N) 1,684 9.2 -35.1°
Enters shadow 03:01:24 47° 52° (NE) 1,932 9.3 -35.4°
